Theta_e
321 319 317 316 316 315 315 313 313 314 313 311 312 312 312 312 312 313 313 312 312 310 310 310 311 311 311 311 310 310 310 310
320 318 317 316 316 315 314 313 314 313 313 311 311 312 312 312 313 314 312 313 313 310 309 310 309 307 306 307 308 310 310 310
318 317 317 316 316 315 314 313 313 314 312 310 311 312 313 313 312 313 313 313 313 311 308 309 309 306 302 305 308 310 310 310
318 317 317 316 315 314 314 313 313 314 311 310 310 312 313 312 312 312 313 313 312 311 308 309 309 304 299 299 302 310 309 309
318 317 317 316 316 315 313 313 313 313 311 311 311 312 310 310 311 310 311 312 314 311 309 309 310 307 298 298 300 307 308 307
318 318 317 317 316 315 315 314 312 311 309 310 311 310 308 309 310 309 311 313 312 310 309 310 310 307 298 297 299 310 308 308
320 319 318 317 315 315 313 312 312 311 309 310 308 308 308 307 307 309 311 312 311 310 310 309 309 310 298 296 299 308 306 306
319 318 317 316 315 314 313 311 310 309 310 307 307 307 307 307 309 310 312 311 310 309 308 310 306 309 298 296 299 304 305 303
318 317 315 315 314 313 311 308 308 310 309 309 309 309 309 310 311 313 312 311 311 311 310 312 312 311 309 298 296 304 304 303
316 315 315 313 313 311 308 308 310 312 309 309 310 311 311 310 311 313 313 313 312 312 312 311 310 312 304 299 298 296 302 304
315 314 312 311 310 309 307 309 311 310 309 310 311 311 311 312 312 312 310 314 310 309 307 307 308 309 310 299 297 296 296 301
314 313 310 306 307 309 309 310 312 310 310 311 311 310 311 312 311 311 309 308 308 307 306 306 306 307 308 308 307 306 301 303
313 312 309 306 309 309 310 312 311 310 311 311 311 310 311 310 312 311 309 313 306 305 305 305 304 304 305 299 299 303 304 300
312 312 309 307 308 309 312 312 311 311 309 309 309 308 309 309 309 310 300 299 298 296 295 299 307 300 293 292 292 292 291 291
311 310 308 308 310 311 310 312 312 311 310 311 310 306 308 309 309 309 307 306 297 295 294 293 292 294 293 292 292 291 291 294
312 311 308 310 310 309 311 312 311 311 312 302 308 309 309 309 309 308 308 307 307 308 299 297 293 292 292 292 292 293 306 300
312 311 311 310 309 309 311 312 311 311 310 310 311 310 310 308 308 309 308 308 308 307 308 301 298 294 293 292 293 305 303 301
310 309 310 309 309 311 312 312 311 311 311 303 303 309 309 310 309 308 308 308 308 307 306 306 306 303 305 304 305 304 302 302
311 311 311 311 310 311 312 312 311 310 310 311 305 308 309 309 308 308 308 308 307 306 306 302 289 304 304 304 303 302 301 300
311 310 311 311 311 311 312 311 312 310 310 310 310 309 309 309 308 309 308 307 304 303 304 303 292 304 304 304 303 301 300 301
Wind_Speed
16 15 13 11 9 7 8 6 6 6 7 5 2 4 3 3 3 3 4 5 7 8 7 7 8 10 12 12 11 10 10 10
15 14 13 11 10 8 7 6 6 6 6 4 3 3 3 4 4 4 4 5 6 7 6 6 6 9 10 11 11 10 9 10
15 14 12 11 10 8 6 6 6 6 6 4 2 0 0 3 5 5 4 4 5 6 6 6 6 9 8 9 9 8 9 9
15 14 13 12 11 9 7 7 7 6 5 5 1 3 2 3 3 5 5 4 4 5 5 5 6 8 7 8 9 12 9 6
15 13 12 11 9 8 7 7 7 7 6 6 4 2 4 3 4 4 4 4 4 4 4 5 5 7 7 10 13 10 8 8
13 12 12 10 9 8 7 7 7 8 6 5 3 2 4 3 3 3 3 3 3 3 2 3 5 6 5 9 16 10 7 10
12 12 12 10 9 8 8 8 8 8 8 5 2 2 1 2 3 2 2 2 2 2 1 3 4 4 4 6 11 14 10 12
12 13 12 10 8 8 8 9 8 8 7 5 5 4 3 4 2 2 1 4 3 5 3 2 0 6 6 1 5 9 10 10
13 12 10 9 8 8 8 8 8 7 6 6 5 5 3 2 2 2 3 4 4 4 5 6 8 7 5 10 6 6 7 9
12 10 9 8 8 8 9 9 8 8 7 6 6 5 5 2 3 5 5 5 8 10 9 10 4 6 13 13 12 11 5 7
10 9 9 8 8 9 10 8 9 8 7 7 5 4 5 4 5 6 8 9 9 8 7 7 6 6 7 12 11 11 12 10
9 9 10 9 9 10 8 10 10 8 8 6 5 5 4 4 7 7 6 7 7 7 8 9 10 10 8 5 5 5 9 8
9 9 10 10 11 9 9 12 8 8 7 5 4 6 7 6 8 5 5 5 4 7 8 9 9 10 8 5 5 8 8 9
9 9 11 11 12 12 11 9 10 8 6 6 5 4 4 5 4 6 10 10 9 12 14 10 8 6 8 3 1 7 8 7
10 10 11 12 13 11 10 10 8 6 6 5 3 3 7 5 5 6 7 5 15 14 16 10 9 14 12 8 7 8 7 2
10 11 12 13 11 11 10 9 8 6 6 2 6 7 5 6 5 7 7 7 7 8 7 10 9 13 11 7 8 6 8 5
11 12 12 11 11 10 9 8 7 6 6 6 6 6 6 5 7 9 7 7 8 8 7 6 9 12 8 9 5 5 7 10
13 11 12 11 9 9 8 7 6 6 6 4 4 7 8 8 5 6 7 8 8 8 8 10 10 10 7 4 2 7 11 9
11 11 10 9 8 7 7 6 6 6 5 6 8 7 9 5 5 7 8 8 9 9 7 7 5 8 8 10 10 11 9 10
11 10 9 8 7 7 6 7 6 6 7 4 6 9 5 4 7 7 8 9 10 9 8 4 2 7 10 10 11 10 8 10
Wind_Direction
160 156 169 169 155 146 131 147 102 108 112 132 224 86 71 43 25 23 19 9 30 22 6 14 17 16 12 1 2 357 360 5
162 163 167 162 151 149 144 127 130 134 137 127 132 70 32 4 345 341 345 350 32 18 5 18 12 36 20 360 354 348 0 359
160 171 163 157 154 147 138 133 148 150 148 167 127 92 172 20 359 340 330 326 22 12 10 32 8 54 24 351 336 337 4 16
164 171 159 162 157 158 151 152 161 169 154 170 90 251 293 8 346 339 332 341 20 11 17 28 22 56 9 333 333 321 22 9
165 170 160 161 162 151 160 168 160 170 172 166 186 284 298 306 305 336 358 342 11 8 3 8 27 48 7 343 332 318 336 356
163 162 156 160 152 158 153 164 174 159 207 149 197 267 281 255 319 357 338 2 357 8 352 2 358 86 37 350 330 326 351 348
157 153 153 155 157 154 166 165 173 163 195 154 154 163 184 89 66 42 357 340 336 282 340 345 13 4 92 5 337 318 14 338
145 144 149 154 156 158 175 167 172 179 165 149 152 146 138 113 91 70 2 301 87 320 337 336 212 296 159 149 330 325 344 342
140 147 157 154 155 164 177 172 169 203 141 167 165 168 179 177 233 263 301 302 337 297 290 271 250 242 220 192 204 294 333 327
152 157 154 154 147 169 169 180 162 195 184 182 177 196 254 160 259 282 278 267 257 253 242 258 245 225 214 190 200 226 272 288
157 161 147 142 153 177 176 167 197 175 189 200 209 216 249 248 262 277 273 235 246 280 303 310 314 319 315 176 205 222 238 253
165 159 150 152 173 186 188 178 193 188 194 205 215 227 253 280 293 278 288 310 321 316 332 335 337 334 353 24 314 267 255 275
167 171 151 160 182 183 186 197 178 197 202 210 225 225 201 263 244 278 296 310 323 316 313 324 317 323 354 1 332 312 329 339
171 172 144 163 184 181 192 172 192 207 194 210 235 288 267 252 280 289 213 242 220 219 237 240 275 308 41 56 308 299 297 300
171 168 153 175 185 178 180 185 201 202 253 320 265 245 262 280 303 294 316 233 233 239 240 230 219 286 303 323 310 314 277 254
166 163 163 181 174 178 183 185 202 220 227 74 280 284 296 287 310 320 296 301 316 325 230 224 211 238 258 270 274 294 325 253
164 165 169 173 177 176 184 191 205 222 223 245 227 248 282 326 280 279 302 326 333 329 7 141 197 238 196 229 234 330 317 17
166 169 169 179 180 167 179 195 214 226 229 261 281 306 293 282 308 316 328 336 336 0 11 32 5 330 345 118 307 25 19 10
169 165 174 180 182 186 177 202 216 244 244 184 213 249 261 311 325 348 334 345 0 357 24 70 5 314 338 27 24 24 7 7
170 167 178 182 183 184 183 190 221 240 248 263 212 244 305 339 12 312 357 15 351 358 1 41 262 342 42 19 24 24 350 3